Regional Weather Roundup
Issued by NWS Nashville, TN

Current Version | Previous Version | Text Only | Print | Product List | Glossary Off
Versions: 1 2 3 4 5 6 7 8 9 10 11 12 13 14 15 16 17 18 19 20 21 22 23 24 25 26 27 28 29 30 31 32 33 34 35 36 37 38 39 40 41 42 43 44 45 46 47 48 49 50

000
ASUS44 KOHX 271805
RWROHX
MIDDLE TENNESSEE HOURLY WEATHER ROUNDUP
NATIONAL WEATHER SERVICE NASHVILLE TN
100 PM CDT WED MAY 27 2015

NOTE: "FAIR" INDICATES FEW OR NO CLOUDS BELOW 12,000 FEET WITH
NO SIGNIFICANT WEATHER AND/OR OBSTRUCTIONS TO VISIBILITY.

* THESE REPORTS ARE NOT UNDER NWS QUALITY CONTROL AND MAY NOT
  REPORT WEATHER SUCH AS PRECIPITATION AND FOG.


TNZ005>011-023>034-057-059-062>066-078-080-271900
...NORTHERN MIDDLE TENNESSEE...

CITY           SKY/WX    TMP DP  RH WIND       PRES   REMARKS
CASTALIAN SPRG   N/A     82  72  69 MISG      29.92F
CLARKSVILLE    MOSUNNY   77  69  76 SW13      30.16R
CROSSVILLE     MOSUNNY   77  60  55 W5        30.25F
GLADEVILLE*      N/A     81  70  69 S3        30.10F
JOELTON*         N/A     79  72  78 W1        30.08S
MOUNT JULIET*    N/A     81  72  74 CALM      29.99F
NASHVILLE      CLOUDY    82  68  62 S9        30.16F
OLD HICKORY*     N/A     81  73  78 S3        29.77F
SMYRNA         PTSUNNY   82  69  64 SW7       30.16F THUNDER
SPARTA         MOSUNNY   82  68  61 SW8       30.19F
$$
TNZ056-058-060-061-075>077-079-093>097-271900
...SOUTHERN MIDDLE TENNESSEE...

CITY           SKY/WX    TMP DP  RH WIND       PRES   REMARKS
COLUMBIA       PTSUNNY   81  72  74 S8        30.16S
MANCHESTER*      N/A     81  70  69 CALM      30.10F
MCMINNVILLE    MOSUNNY   82  68  61 VRB6      30.20F
MOUNT PLEASANT   N/A     81  73  78 S2        30.09F
SHELBYVILLE    MOSUNNY   82  70  65 SW9       30.20F
TULLAHOMA      MOSUNNY   81  66  61 S7        30.21F
WINCHESTER     MOSUNNY   84  64  51 VRB3      30.20F
$$


...KEY TO REMARKS...
VSB - VISIBILITY IN MILES
WCI - WIND CHILL INDEX
HX  - HEAT INDEX



USA.gov is the U.S. government's official web portal to all federal, state and local government web resources and services.